Weather reports worldwide

Advertisment
Svanberga, Sweden (2490): temperature & dewpoint: 10.10.2019 05:00:00 - 16.10.2019 05:00:00 (CEST)Svanberga, Sweden (2490): wind speed & gusts: 10.10.2019 05:00:00 - 16.10.2019 05:00:00 (CEST)Svanberga, Sweden (2490): wind direction: 10.10.2019 05:00:00 - 16.10.2019 05:00:00 (CEST)Svanberga, Sweden (2490): reduced air pressure: 10.10.2019 05:00:00 - 16.10.2019 05:00:00 (CEST)Svanberga, Sweden (2490): visibility: 10.10.2019 05:00:00 - 16.10.2019 05:00:00 (CEST)Svanberga, Sweden (2490): precipitation: 10.10.2019 05:00:00 - 16.10.2019 05:00:00 (CEST)
Date & Time tt [°C] td [°C] ff [km/h] ff [kn] fx [km/h] fx [kn] dd ppp [hPa] vv [km] rr [mm]
16.10.2019 05:00:00 8,7 8,5 11 6 24 13 E 1010,4 3,4 0,0
16.10.2019 04:00:00 8,7 8,6 12 7 26 14 E 1011,1 - 0,0
16.10.2019 03:00:00 8,6 8,5 11 6 24 13 E 1011,3 - 0,0
16.10.2019 02:00:00 8,7 8,6 9 5 22 12 E 1012,3 - 0,2
16.10.2019 01:00:00 8,5 8,4 12 7 23 12 E 1012,6 - 0,3
16.10.2019 00:00:00 8,4 8,1 12 6 26 14 E 1013,5 - 0,3
15.10.2019 23:00:00 8,2 7,8 12 7 26 14 E 1013,9 - 0,1
15.10.2019 22:00:00 8,2 7,1 13 7 29 15 ESE 1014,6 - 0,0
15.10.2019 21:00:00 7,8 6,7 11 6 24 13 E 1014,9 - 0,0
15.10.2019 20:00:00 7,5 6,8 12 6 26 14 E 1015,7 - 0,8
15.10.2019 19:00:00 7,2 6,6 12 7 21 12 E 1016,0 - 1,8
15.10.2019 18:00:00 7,0 6,6 12 7 22 12 E 1016,5 - 3,9
15.10.2019 17:00:00 7,3 6,4 5 3 19 10 E 1017,3 - 0,8
15.10.2019 16:00:00 7,7 6,6 8 4 20 11 ESE 1017,7 - 0,1
15.10.2019 15:00:00 8,1 7,0 9 5 12 7 E 1018,2 - 0,4
15.10.2019 14:00:00 8,6 6,4 5 3 10 5 E 1019,1 0,1 0,0
15.10.2019 13:00:00 - - - - - - - - - -
15.10.2019 12:00:00 8,5 6,8 5 3 8 5 E 1019,5 0,1 0,0
15.10.2019 11:00:00 7,5 6,6 3 1 9 5 E 1019,6 0,1 0,0
15.10.2019 10:00:00 6,2 5,9 4 2 7 4 E 1019,7 0,1 0,0
15.10.2019 09:00:00 5,3 5,2 4 2 8 4 E 1019,9 0,1 0,0
15.10.2019 08:00:00 4,8 4,7 4 2 8 4 ESE 1019,3 - 0,0
15.10.2019 07:00:00 4,6 4,5 2 1 5 3 E 1019,7 - 0,0
15.10.2019 06:00:00 4,4 4,3 0 0 3 2 N 1019,8 - 0,0
15.10.2019 05:00:00 4,2 4,1 0 0 6 4 N 1019,9 - 0,0
15.10.2019 04:00:00 3,7 3,6 0 0 2 1 N 1019,4 - 0,0
15.10.2019 03:00:00 3,0 2,9 0 0 3 1 N 1019,5 - 0,0
15.10.2019 02:00:00 1,3 1,2 0 0 2 1 N 1019,3 - 0,0
15.10.2019 01:00:00 0,7 0,6 0 0 3 2 N 1018,8 - 0,0
15.10.2019 00:00:00 1,3 1,0 0 0 4 2 N 1018,5 - 0,0
14.10.2019 23:00:00 1,6 1,3 3 1 6 3 NW 1017,7 - 0,0
14.10.2019 22:00:00 3,7 3,6 3 1 5 3 WNW 1017,1 - 0,0
14.10.2019 21:00:00 5,5 4,8 0 0 7 4 N 1016,2 - 0,0
14.10.2019 20:00:00 7,5 6,3 0 0 10 5 N 1015,2 0,1 0,0
14.10.2019 19:00:00 7,6 6,7 0 0 8 4 N 1014,4 0,1 0,0
14.10.2019 18:00:00 6,7 6,0 0 0 11 6 N 1013,2 0,1 0,0
14.10.2019 17:00:00 7,9 6,4 4 2 20 11 NE 1011,6 0,1 0,0
14.10.2019 16:00:00 8,9 6,9 10 6 19 10 NE 1010,5 0,1 0,0
14.10.2019 15:00:00 9,1 7,2 6 3 26 14 NE 1008,8 0,1 0,0
14.10.2019 14:00:00 8,9 7,3 11 6 22 12 NE 1006,5 0,1 0,0
14.10.2019 13:00:00 8,8 7,9 7 4 23 13 NE 1005,7 - 0,1
14.10.2019 12:00:00 8,5 7,7 11 6 23 12 NE 1004,4 17 0,9
14.10.2019 11:00:00 7,8 7,2 11 6 25 13 NE 1003,7 12 1,6
14.10.2019 10:00:00 8,1 7,5 11 6 19 11 ENE 1003,1 18 1,2
14.10.2019 09:00:00 7,9 7,1 10 6 21 12 ENE 1002,5 20 1,1
14.10.2019 08:00:00 8,1 7,7 10 6 21 11 E 1002,8 15 1,6
14.10.2019 07:00:00 8,2 7,9 5 3 11 6 E 1003,4 7 2,3
14.10.2019 06:00:00 8,5 8,2 7 4 23 13 SE 1003,5 13 2,0
14.10.2019 05:00:00 8,7 8,6 5 3 9 5 ENE 1004,2 11 1,2
14.10.2019 04:00:00 8,5 8,4 5 3 10 5 ESE 1005,2 5 2,0
14.10.2019 03:00:00 7,2 7,1 5 3 8 4 E 1006,6 13 0,1
14.10.2019 02:00:00 6,4 6,3 6 3 10 6 E 1007,5 24 0,0
14.10.2019 01:00:00 4,7 4,6 3 2 7 4 E 1008,5 16 0,0
14.10.2019 00:00:00 4,5 4,4 2 1 8 4 E 1009,5 21 0,0
13.10.2019 23:00:00 4,1 4,0 0 0 5 3 N 1010,5 22 0,0
13.10.2019 22:00:00 2,8 2,7 3 1 6 3 E 1010,7 24 0,0
13.10.2019 21:00:00 0,9 0,8 0 0 4 2 N 1010,6 1,1 0,0
13.10.2019 20:00:00 1,4 1,0 0 0 5 3 N 1010,7 0,5 0,0
13.10.2019 19:00:00 1,9 1,3 0 0 1 1 N 1010,6 2,6 0,0
13.10.2019 18:00:00 4,2 3,3 0 0 2 1 N 1010,1 2,8 0,0
13.10.2019 17:00:00 7,6 5,9 0 0 9 5 N 1010,0 49 0,0
13.10.2019 16:00:00 11,7 5,8 4 2 9 5 WNW 1009,5 14 0,0
13.10.2019 15:00:00 11,4 5,7 5 3 13 7 WNW 1008,7 50 0,0
13.10.2019 14:00:00 11,0 5,9 6 4 15 8 WNW 1008,3 43 0,0
13.10.2019 13:00:00 10,5 6,1 5 3 13 7 WNW 1007,6 50 0,0
13.10.2019 12:00:00 9,3 5,3 5 3 10 6 WNW 1006,9 50 0,0
13.10.2019 11:00:00 8,6 5,5 5 3 14 7 WNW 1006,1 47 0,0
13.10.2019 10:00:00 8,3 5,8 5 3 16 9 WNW 1005,3 44 0,0
13.10.2019 09:00:00 7,8 6,9 8 4 19 11 WNW 1004,0 49 0,0
13.10.2019 08:00:00 7,7 7,1 5 3 16 9 W 1002,8 50 0,0
13.10.2019 07:00:00 8,2 7,4 4 2 21 11 W 1001,7 50 0,0
13.10.2019 06:00:00 8,6 7,7 10 6 23 12 WNW 1000,7 50 0,0
13.10.2019 05:00:00 8,5 8,1 6 3 16 9 W 999,7 43 0,0
13.10.2019 04:00:00 8,8 8,0 6 3 18 10 W 998,8 40 0,4
13.10.2019 03:00:00 9,5 8,7 9 5 24 13 SW 998,0 7 0,5
13.10.2019 02:00:00 9,8 8,4 7 4 23 12 WSW 997,5 27 0,0
13.10.2019 01:00:00 9,9 8,5 8 4 20 11 WSW 997,3 36 0,0
13.10.2019 00:00:00 9,9 8,7 8 5 21 11 WSW 996,6 30 0,0
12.10.2019 23:00:00 9,8 8,7 9 5 23 13 WSW 996,4 18 0,0
12.10.2019 22:00:00 9,2 8,3 2 1 13 7 SSW 996,1 20 0,1
12.10.2019 21:00:00 9,4 8,3 3 1 11 6 WSW 995,8 10 0,3
12.10.2019 20:00:00 9,8 8,6 3 1 11 6 SW 995,6 20 0,0
12.10.2019 19:00:00 9,5 9,0 3 2 8 4 SSW 995,6 15 0,0
12.10.2019 18:00:00 9,1 8,5 3 2 10 5 SSW 995,5 22 0,1
12.10.2019 17:00:00 9,7 8,8 8 4 20 11 SW 995,3 10 0,9
12.10.2019 16:00:00 10,5 9,4 3 2 11 6 NNW 994,8 10 1,0
12.10.2019 15:00:00 11,3 8,9 5 3 17 9 WSW 994,8 16 0,0
12.10.2019 14:00:00 10,9 8,3 6 4 19 11 WSW 994,5 15 0,0
12.10.2019 13:00:00 10,9 8,8 6 3 20 11 WSW 994,0 16 0,0
12.10.2019 12:00:00 10,4 8,8 7 4 22 12 WSW 993,4 15 0,0
12.10.2019 11:00:00 9,9 9,0 6 3 15 8 W 992,8 12 0,0
12.10.2019 10:00:00 9,4 8,6 6 3 15 8 WSW 992,3 20 0,0
12.10.2019 09:00:00 9,0 8,2 7 4 18 10 WSW 991,4 27 0,0
12.10.2019 08:00:00 8,6 8,2 6 4 20 11 WSW 990,7 22 0,0
12.10.2019 07:00:00 8,6 8,2 9 5 22 12 W 990,1 23 0,0
12.10.2019 06:00:00 8,8 8,3 7 4 20 11 WSW 989,5 17 0,2
12.10.2019 05:00:00 9,2 8,9 7 4 24 13 WSW 989,3 6 3,0
12.10.2019 04:00:00 9,4 8,8 7 4 23 12 WSW 989,2 15 0,1
12.10.2019 03:00:00 9,6 9,1 6 3 16 9 WSW 989,4 27 0,0
12.10.2019 02:00:00 9,5 9,2 5 3 12 7 SW 989,6 20 0,2
12.10.2019 01:00:00 9,4 9,1 2 1 10 5 SW 990,1 18 0,0
12.10.2019 00:00:00 8,8 8,5 2 1 10 5 SSW 990,6 15 0,0
11.10.2019 23:00:00 9,4 9,1 0 0 11 6 N 991,1 11 0,2
11.10.2019 22:00:00 9,3 8,8 4 2 12 6 S 991,9 13 0,7
11.10.2019 21:00:00 9,2 8,3 3 2 14 8 S 992,8 35 0,0
11.10.2019 20:00:00 8,7 7,8 3 2 10 6 SSE 993,3 39 0,0
11.10.2019 19:00:00 9,3 8,4 3 2 6 3 SSE 994,7 40 0,0
11.10.2019 18:00:00 9,9 8,0 4 2 9 5 SSW 995,1 42 0,0
11.10.2019 17:00:00 10,2 8,0 2 1 10 5 S 995,5 14 0,0
11.10.2019 16:00:00 11,3 7,4 4 2 19 10 SSW 996,1 31 0,0
11.10.2019 15:00:00 11,6 7,1 6 3 24 13 WSW 996,6 33 0,0
11.10.2019 14:00:00 11,8 6,3 8 4 29 16 WSW 997,0 28 0,0
11.10.2019 13:00:00 11,0 6,9 6 4 20 11 W 997,3 34 0,0
11.10.2019 12:00:00 10,8 7,1 9 5 24 13 WSW 997,7 30 0,0
11.10.2019 11:00:00 10,2 7,6 10 5 23 12 WSW 997,6 31 0,0
11.10.2019 10:00:00 9,3 7,9 5 3 19 10 SW 997,7 35 0,0
11.10.2019 09:00:00 8,3 7,7 6 3 21 11 SW 997,8 20 0,0
11.10.2019 08:00:00 8,0 7,4 4 2 14 8 SSW 998,0 3,9 0,0
11.10.2019 07:00:00 8,0 7,4 4 2 15 8 SSW 998,2 14 0,0
11.10.2019 06:00:00 8,2 7,4 4 2 18 10 WSW 998,6 19 0,0
11.10.2019 05:00:00 8,1 7,3 4 2 19 10 SW 999,0 26 0,0
11.10.2019 04:00:00 8,5 8,1 5 3 16 9 WSW 999,0 21 0,0
11.10.2019 03:00:00 8,3 8,0 3 2 8 5 SW 999,0 16 0,0
11.10.2019 02:00:00 7,9 7,5 2 1 13 7 WSW 999,3 19 0,0
11.10.2019 01:00:00 8,7 8,4 5 3 16 9 WSW 999,2 23 0,0
11.10.2019 00:00:00 8,6 8,5 4 2 10 6 WSW 999,1 18 0,1
10.10.2019 23:00:00 8,5 8,2 3 2 8 4 SW 999,0 15 0,3
10.10.2019 22:00:00 8,5 8,2 0 0 5 3 N 999,1 15 0,6
10.10.2019 21:00:00 8,3 8,2 0 0 5 3 N 999,1 10 0,0
10.10.2019 20:00:00 8,1 8,0 0 0 5 3 N 999,1 6 0,0
10.10.2019 19:00:00 8,2 7,9 0 0 6 3 N 999,0 8 0,0
10.10.2019 18:00:00 8,8 8,2 0 0 3 2 N 998,9 - 0,0
10.10.2019 17:00:00 9,8 9,0 0 0 4 2 N 998,8 14 0,0
10.10.2019 16:00:00 11,2 8,8 0 0 10 5 N 998,7 41 0,0
10.10.2019 15:00:00 11,2 9,5 3 2 10 5 W 998,7 25 0,0
10.10.2019 14:00:00 11,1 9,4 3 1 7 4 NW 998,6 28 0,0
10.10.2019 13:00:00 11,2 9,3 5 3 11 6 NW 998,6 24 0,0
10.10.2019 12:00:00 10,9 9,5 3 2 10 5 WSW 998,7 23 0,0
10.10.2019 11:00:00 10,1 9,9 3 2 7 4 SSW 998,5 18 0,0
10.10.2019 10:00:00 9,2 9,1 0 0 7 4 N 998,5 7 0,0
10.10.2019 09:00:00 8,1 8,0 4 2 8 4 SE 998,4 12 0,0
10.10.2019 08:00:00 5,8 5,7 5 3 8 4 E 998,4 4,1 0,0
10.10.2019 07:00:00 5,1 5,0 0 0 5 3 N 998,5 4,1 0,0
10.10.2019 06:00:00 5,2 5,1 0 0 10 5 N 998,6 5 0,6
10.10.2019 05:00:00 4,6 4,5 3 1 6 3 E 998,9 9 0,4

tt = temperature
td = dewpoint
ff = wind speed
fx = gusts
dd = wind direction
ppp = reduced air pressure
vv = visibility
rr = precipitation

Next stations